Location: Newark
(41.8083°N, 72.2500°W)
Time: 00:41:55
(UTC+00:00)

Vanguard 1 Rocket - Pass Details

Date: 16 December 2021
Orbit: 651 x 4224 km, 34.3° (Epoch: 15 January)

Event Time Altitude Azimuth Distance (km) Brightness Sun altitude
Exits shadow 10:59:17 - 263° (W) 4,859 10.6 -12.7°
Reaches altitude 10° 10:59:52 10° 261° (W) 4,794 10.5 -12.6°
Maximum altitude 11:11:00 26° 211° (SSW) 4,737 10.9 -10.7°
Drops below altitude 10° 11:27:30 10° 165° (SSE) 7,129 12.5 -7.9°
Sets 11:35:16 0° 155° (SSE) 8,405 13.2 -6.6°
